Regional Weather Roundup
Issued by NWS

Home | Current Version | Previous Version | Graphics & Text | Print | Product List | Glossary On
Versions: 1 2 3 4 5 6 7 8 9 10 11 12 13 14 15 16 17 18 19 20 21 22 23 24 25 26 27 28 29 30 31 32 33 34 35 36 37 38 39 40 41 42 43 44 45 46 47 48 49 50
000
ASUS43 KLOT 200310
RWRIL

ILLINOIS REGIONAL WEATHER ROUNDUP
NATIONAL WEATHER SERVICE CHICAGO/ROMEOVILLE IL
900 PM CST FRI DEC 19 2014

NOTE: "FAIR" INDICATES FEW OR NO CLOUDS BELOW 12,000 FEET WITH NO
SIGNIFICANT WEATHER AND/OR OBSTRUCTIONS TO VISIBILITY.

* THESE STATIONS ARE NOT UNDER NWS QUALITY CONTROL. THEY ALSO MAY NOT
  REPORT WEATHER SUCH AS PRECIPITATION OR FOG.

ILZ001-002-007-009-015-016-024-200400-
NORTHWEST ILLINOIS

CITY           SKY/WX    TMP DP  RH WIND       PRES   REMARKS
MOLINE         CLOUDY    28  23  81 E8        30.26F WCI  20
STERLING*      CLOUDY    28  23  80 E5        30.27S WCI  23
SAVANNA*       CLOUDY    27  23  84 SE3       30.26F
$$

ILZ003-004-008-010-011-017-018-200400-
NORTH CENTRAL ILLINOIS

CITY           SKY/WX    TMP DP  RH WIND       PRES   REMARKS
ROCKFORD       CLOUDY    28  22  78 SE5       30.29S WCI  23
FREEPORT*      CLOUDY    26  23  89 SE3       30.28S
ROCHELLE*      CLOUDY    22  21  94 CALM      30.27F
DE KALB*       MOCLDY    22  20  93 NE3       30.26F FOG
PERU*          CLOUDY    30  26  83 NE6       30.28F WCI  24
$$

ILZ005-006-012>014-019>023-200400-
NORTHEAST ILLINOIS

CITY           SKY/WX    TMP DP  RH WIND       PRES   REMARKS
CHICAGO-OHARE  CLOUDY    30  21  69 N5        30.26F WCI  25
CHICAGO-MIDWAY CLOUDY    33  25  72 S5        30.27F WCI  29
AURORA         PTCLDY    26  21  81 N3        30.27F
LANSING*       CLOUDY    31  26  80 S3        30.28F
JOLIET*        CLOUDY    30  24  78 CALM      30.28F
WAUKEGAN       CLOUDY    27  20  75 CALM      30.26F
DUPAGE AIRPORT CLOUDY    27  22  81 N5        30.26F WCI  22
KANKAKEE*      CLOUDY    30  27  88 CALM      30.28F
WHEELING       CLOUDY    29  21  72 NW3       30.29S
MORRIS*        CLOUDY    30  25  84 CALM      30.27F
ROMEOVILLE*    CLOUDY    31  26  81 S3        30.27F
NORTHERLY ISL    N/A     33  23  67 S5          N/A  WCI  29
$$

LMZ740>746-200400-
SOUTHERN LAKE MICHIGAN

STATION/POSITION SKY/WX   TEMP    WIND        PRES    VSBY  WAVE
                          AIR SEA DIR/SP/G                  HT/PER
                          (F)     (DEG/KT/KT) (MB)    (MI)  (FT/S)
WAUKEGAN HARBOR            28        CALM       N/A
HARRISON CRIB              32     150/  4/  6   N/A
BURNHAM HARBOR             33     180/  4/  7   N/A
CALUMET HARBOR             32     190/  2/  3 1024.0F
$$

ILZ025>027-034>036-040-047-049-050-058-095>099-200400-
WEST-CENTRAL ILLINOIS

CITY           SKY/WX    TMP DP  RH WIND       PRES   REMARKS
QUINCY         CLOUDY    32  26  78 SE8       30.25R WCI  25
GALESBURG*     CLOUDY    29  24  80 E6        30.25S WCI  23
MACOMB*        CLOUDY    30  26  84 S3        30.28R
JACKSONVILLE*  CLOUDY    33  28  83 E7        30.26F WCI  27
PITTSFIELD*    CLOUDY    33  29  86 E3        30.26S
$$

ILZ028>032-037-038-041>044-048-051>054-059>061-200400-
CENTRAL ILLINOIS

CITY           SKY/WX    TMP DP  RH WIND       PRES   REMARKS
PONTIAC        CLOUDY    25  24  95 CALM      30.28F
BLOOMINGTON    MOCLDY    25  24  96 CALM      30.26F
DECATUR        CLOUDY    29  25  85 CALM      30.27S
PEORIA         MOCLDY    29  21  72 E6        30.26F WCI  23
LACON*         CLOUDY    28  24  82 CALM      30.27S
LINCOLN*       MOCLDY    30  27  87 E3        30.28S
SPRINGFIELD    CLOUDY    32  25  75 CALM      30.27S
TAYLORVILLE    CLOUDY    30  27  86 CALM      30.27S
$$

ILZ033-039-045-046-055>057-062-063-200400-
EAST-CENTRAL ILLINOIS

CITY           SKY/WX    TMP DP  RH WIND       PRES   REMARKS
CHAMPAIGN      CLOUDY    26  23  88 E6        30.26F WCI  19
DANVILLE*      CLOUDY    29  27  91 E3        30.25S
RANTOUL*       CLOUDY    29  27  92 CALM      30.26F
MATTOON        CLOUDY    29  23  78 E6        30.25F WCI  23
PARIS*         CLOUDY    31  28  89 CALM      30.27F
$$

ILZ079-100>102-200400-
SOUTHWEST ILLINOIS

CITY           SKY/WX    TMP DP  RH WIND       PRES   REMARKS
BELLEVILLE     CLOUDY    34  30  84 NE3       30.26S
CAHOKIA*       CLOUDY    36  29  75 E5        30.26F WCI  32
SPARTA*        CLOUDY    34  29  83 CALM      30.26F
$$

ILZ064>066-069>071-074>076-080>082-084>086-088>090-092>094-200400-
SOUTH-CENTRAL ILLINOIS

CITY           SKY/WX    TMP DP  RH WIND       PRES   REMARKS
CARBONDALE     CLOUDY    35  26  69 CALM      30.27R
CAIRO*         CLOUDY    39  31  72 NE6       30.27R WCI  35
EFFINGHAM*     CLOUDY    31  23  71 CALM      30.28F
MARION         CLOUDY    36  27  69 NE3       30.27R
MT. VERNON     CLOUDY    34  23  64 NE3       30.27S
CENTRALIA*     CLOUDY    33  25  72 E3        30.26F
SALEM*         CLOUDY    34  26  71 E3        30.26F
METROPOLIS*    CLOUDY    37  30  76 E3        30.25R
$$

ILZ067-068-072-073-078-083-087-091-200400-
SOUTHEAST ILLINOIS

CITY           SKY/WX    TMP DP  RH WIND       PRES   REMARKS
LAWRENCEVILLE  CLOUDY    31  25  78 NE6       30.27F WCI  25
FLORA*         CLOUDY    32  26  80 CALM      30.27F
FAIRFIELD*     CLOUDY    33  26  76 NE3       30.26S
HARRISBURG*    CLOUDY    35  28  75 E5        30.27S WCI  31
ROBINSON*      CLOUDY    31  27  83 E3        30.29S
CARMI*         CLOUDY    35  31  85 E3        30.26F
$$

ABBREVIATIONS USED IN REMARKS
   TC - TEMPERATURE IN CELSIUS
  WCI - WIND CHILL INDEX
   HX - HEAT INDEX
  VSB - VISIBILITY
$$



USA.gov is the U.S. government's official web portal to all federal, state and local government web resources and services.